This is the latest recevied weather packets stored in our database for station/object IZ1GCT. If no packets are shown the sender has not sent any weather packets the latest 10 day(s).
| Time | Temp. | Humidity | Pressure | Rain* | Wind** | Luminosity | Snow |
|---|---|---|---|---|---|---|---|
| 1777833048 | 16.67° C | 67% | 1019.8 hPa | 0 mm | - | - | - |
| 1777832749 | 17.22° C | 68% | 1019.8 hPa | 0 mm | - | - | - |
| 1777832448 | 17.22° C | 68% | 1019.7 hPa | 0 mm | - | - | - |
| 1777832148 | 17.22° C | 67% | 1019.6 hPa | 0 mm | - | - | - |
| 1777831848 | 17.78° C | 63% | 1019.8 hPa | 0 mm | - | - | - |
| 1777831549 | 17.78° C | 63% | 1019.7 hPa | 0 mm | - | - | - |
| 1777831248 | 18.33° C | 61% | 1019.8 hPa | 0 mm | - | - | - |
| 1777830948 | 18.33° C | 59% | 1019.7 hPa | 0 mm | - | - | - |
| 1777830649 | 18.33° C | 55% | 1019.7 hPa | 0 mm | - | - | - |
| 1777830349 | 18.33° C | 55% | 1019.7 hPa | 0 mm | - | - | - |
| 1777830048 | 18.33° C | 56% | 1019.6 hPa | 0 mm | - | - | - |
| 1777829749 | 18.33° C | 59% | 1019.6 hPa | 0 mm | - | - | - |
| 1777829449 | 18.33° C | 57% | 1019.7 hPa | 0 mm | - | - | - |
| 1777829148 | 18.89° C | 60% | 1019.7 hPa | 0 mm | - | - | - |
| 1777828848 | 18.89° C | 59% | 1019.7 hPa | 0 mm | - | - | - |
| 1777828549 | 18.33° C | 60% | 1019.8 hPa | 0 mm | - | - | - |
| 1777828248 | 18.33° C | 60% | 1019.8 hPa | 0 mm | - | - | - |
| 1777827948 | 18.89° C | 60% | 1019.8 hPa | 0 mm | - | - | - |
| 1777827649 | 18.89° C | 60% | 1019.8 hPa | 0 mm | - | - | - |
| 1777827348 | 18.89° C | 56% | 1019.9 hPa | 0 mm | - | - | - |
| 1777827048 | 19.44° C | 53% | 1019.9 hPa | 0 mm | - | - | - |
| 1777826749 | 19.44° C | 52% | 1019.9 hPa | 0 mm | - | - | - |
| 1777826449 | 19.44° C | 53% | 1019.8 hPa | 0 mm | - | - | - |
| 1777826148 | 19.44° C | 51% | 1020 hPa | 0 mm | - | - | - |
| 1777825849 | 19.44° C | 51% | 1019.9 hPa | 0 mm | - | - | - |
* Rain latest hour (hover to see other rain measurements)
** Current wind speed in m/s (hover to see current wind gust speed)